User: anonymous   Login
Location: Condor
(52.3263°N, 114.5541°W)
Time: 17:58:01
(UTC+00:00)
Language:

Cosmos 1803 Rocket - Orbit

View from above orbital plane
View from above orbital plane
View from above satellite
View from above satellite

Ground track
Ground track

The orbit data is extracted from the following two-line orbital elements,

1 17178U 86094B   24148.96062476  .00000018  00000-0  57041-4 0  9990
2 17178  82.6045 101.6965 0001976 341.8673  80.6885 12.42045798699476
Epoch (UTC): 27 May 2024 23:03:17
Eccentricity: 0.0001976
inclination: 82.6045°
perigee height: 1496 km
apogee height: 1499 km
right ascension of ascending node: 101.6965°
argument of perigee: 341.8673°
revolutions per day: 12.42045798
mean anomaly at epoch: 80.6885°
orbit number at epoch: 69947

The dashed part of the orbit path shows where the satellite is in the earth's shadow,  

DLR